Vorticity
15 20 25 27 15 12 15 25 30 32 31 25 16 10 7 8 9 12 15 16 14 11 7 2 6 6 2 -7 -5 2 9 12 5 -2 -5 0 4 4 3 3 6 10 13 14 9 6 6 10 14 17 16 8 6 5 5 3 2 2 2 3 3 4 4 5 6 8 11 12 11
16 19 22 22 14 13 19 29 33 33 30 23 14 9 7 8 9 12 14 16 13 8 4 1 11 11 3 -9 -8 1 11 15 4 -4 -6 3 6 6 5 5 7 11 14 14 9 6 7 11 13 14 12 4 6 6 5 2 1 1 2 3 4 4 5 5 8 10 12 12 10
15 16 18 17 14 17 24 33 35 34 30 21 12 8 8 8 10 12 14 16 13 5 -2 -4 11 15 9 -5 -4 3 11 13 -1 -7 -5 6 9 9 7 8 11 13 15 14 9 8 9 11 11 11 8 2 5 6 4 0 -0 1 3 4 4 5 6 7 10 11 12 11 9
12 12 13 13 16 22 29 35 36 34 28 18 11 8 8 9 10 12 14 16 13 3 -7 -11 8 17 16 4 3 6 9 7 -7 -10 -4 10 13 13 11 12 14 15 13 10 8 9 10 9 9 7 4 1 5 5 2 -1 0 2 4 4 5 6 7 9 11 12 11 10 9
9 9 10 13 20 27 33 36 36 32 25 15 11 9 9 8 9 12 15 17 13 3 -9 -18 1 17 23 14 8 7 6 0 -11 -11 -2 12 15 15 15 16 17 14 9 6 7 9 10 11 12 8 3 3 4 3 0 -0 2 4 5 5 6 7 9 11 12 11 10 8 8
8 12 16 15 25 31 35 36 34 29 21 13 11 10 8 5 9 13 16 18 13 4 -8 -21 -6 13 26 24 16 11 5 -4 -12 -9 -0 11 13 15 16 17 17 11 4 1 3 7 10 13 14 10 6 6 4 1 -1 1 3 5 6 6 7 9 11 12 11 10 8 7 7
10 15 18 16 27 33 36 36 31 25 18 13 12 10 8 4 9 14 17 18 13 4 -7 -21 -10 8 24 28 22 15 5 -5 -10 -7 -0 8 11 15 17 17 15 9 2 -3 -4 1 7 13 14 12 8 6 3 1 0 2 4 6 7 7 9 10 11 12 10 8 7 7 6
12 16 19 24 31 35 36 33 28 22 16 13 11 10 8 5 9 14 17 19 12 5 -4 -17 -9 6 20 26 22 14 5 -5 -9 -8 -3 4 11 17 19 15 12 8 2 -4 -10 -6 3 12 13 11 7 5 2 2 2 4 5 6 7 8 10 11 11 10 8 8 7 6 5
16 21 25 30 33 34 33 29 24 19 16 12 11 9 7 4 10 14 17 18 12 5 -1 -9 -4 7 18 23 19 11 2 -5 -9 -8 -3 2 13 20 21 14 12 9 6 1 -5 -4 3 11 12 9 5 2 2 2 3 5 6 7 8 8 9 10 9 9 8 7 6 6 6
26 30 32 34 34 32 30 26 21 17 14 11 10 7 5 3 11 16 18 18 11 4 -2 -6 4 13 19 22 15 7 -1 -7 -8 -6 -1 5 15 21 21 13 11 11 9 4 3 4 6 10 12 8 2 -0 1 3 4 7 7 8 8 8 8 8 8 8 7 7 6 6 7
33 35 36 35 33 30 26 23 19 15 12 10 8 5 3 5 13 19 20 16 9 0 -6 -6 7 17 22 22 13 5 -2 -8 -6 -3 2 10 16 19 18 13 10 9 9 7 7 6 6 8 11 7 2 0 2 4 6 8 8 8 8 8 8 8 7 7 7 6 6 6 8
37 36 34 31 28 25 23 19 16 13 11 9 6 4 4 8 15 19 19 13 6 -1 -6 -4 8 17 22 19 10 4 -1 -4 -3 0 6 13 16 17 16 13 10 9 8 9 8 7 6 9 14 11 5 4 5 6 7 8 8 8 7 7 8 8 8 7 6 6 6 6 8
33 30 26 22 20 21 22 18 14 11 9 8 4 3 5 11 17 18 16 10 5 2 1 3 9 15 18 16 9 4 1 -1 -3 1 7 14 15 16 15 15 14 11 8 8 6 5 8 13 16 14 9 7 7 7 8 7 7 7 7 7 8 9 9 7 6 5 5 7 8
21 18 16 15 17 22 24 16 11 9 8 5 3 3 6 12 18 17 12 6 6 8 11 13 14 15 16 14 10 6 3 -3 -4 1 9 14 15 15 14 16 16 14 9 5 2 3 8 16 16 13 10 7 7 8 7 7 7 7 8 8 9 9 9 7 5 5 5 7 8
9 10 12 14 21 25 23 13 10 8 6 2 3 6 10 15 17 13 6 -2 6 15 21 22 20 18 16 13 12 10 5 -4 -3 3 11 15 14 12 12 14 15 12 8 3 1 4 11 19 16 11 7 6 7 8 7 7 7 8 9 10 10 9 8 6 4 5 7 8 7
9 12 15 19 25 25 19 10 10 8 6 2 7 10 13 16 14 5 -5 -12 6 20 27 25 22 19 16 13 14 12 6 -2 1 7 13 15 12 9 8 11 11 8 5 3 3 9 15 20 14 8 4 6 7 7 8 8 8 9 10 10 9 8 6 4 4 6 8 8 7
14 17 21 25 25 21 14 10 11 10 8 7 12 13 14 14 8 -1 -10 -15 7 21 26 24 21 19 16 13 14 11 5 -2 3 8 12 12 8 7 7 9 7 6 5 5 6 12 17 17 10 5 3 5 6 8 9 9 9 10 10 9 7 5 3 3 6 8 8 8 7
17 21 24 26 21 17 13 13 13 11 9 9 14 16 15 11 6 0 -4 -5 10 19 22 21 19 18 16 14 12 6 -0 -5 1 6 9 7 6 6 6 6 6 6 5 5 7 11 14 12 6 4 3 4 6 8 10 10 10 10 9 7 5 3 4 6 9 10 9 6 6
19 22 24 23 18 15 13 11 6 2 2 7 14 20 21 14 9 8 8 8 13 17 20 20 18 18 17 15 8 -1 -8 -9 -1 4 7 6 7 6 5 4 5 5 5 4 4 9 12 9 5 4 3 4 6 8 9 9 9 8 7 4 4 5 8 11 11 9 6 4 5
21 22 22 20 16 12 6 -2 -8 -8 -2 9 18 24 25 19 14 15 17 17 17 18 19 18 18 18 17 13 3 -7 -12 -6 2 6 7 8 9 7 5 3 4 5 5 4 5 9 12 8 6 5 5 5 7 9 9 8 8 7 6 6 7 9 10 9 6 3 3 5 8
23 23 21 18 11 3 -6 -15 -15 -8 4 16 23 26 26 22 19 20 21 22 21 19 18 16 18 18 15 9 -4 -10 -8 1 5 7 8 9 9 7 5 3 4 4 5 3 9 12 12 8 7 6 7 9 10 10 9 8 7 8 8 10 10 8 6 2 1 1 3 8 11
21 20 19 15 5 -6 -15 -18 -11 -2 9 19 24 26 25 23 23 23 23 22 19 17 16 16 16 14 9 0 -8 -7 0 8 9 8 7 9 9 8 6 4 4 3 3 3 13 15 12 8 7 8 10 12 11 9 8 8 8 9 10 9 7 4 2 1 0 2 6 11 12
17 18 17 14 3 -6 -11 -10 -4 3 11 22 26 26 25 24 24 23 22 20 16 15 15 16 14 9 1 -7 -7 -0 7 10 8 5 5 8 9 9 8 6 6 4 5 9 16 15 11 8 8 8 10 10 8 8 8 8 9 8 6 4 2 3 3 2 2 5 9 13 10
14 18 18 14 6 1 0 4 5 8 14 24 26 25 23 22 20 19 16 13 13 14 15 15 9 2 -4 -7 2 8 11 11 8 6 5 7 8 9 10 9 8 8 11 19 17 13 9 9 7 7 7 6 6 6 7 8 7 5 2 -0 1 3 4 3 5 9 11 10 7
18 20 20 16 11 10 11 13 10 10 14 20 20 18 15 13 10 7 5 5 8 11 13 11 3 -3 -4 3 10 11 10 9 8 6 5 5 6 8 9 10 12 16 21 25 16 11 9 9 8 7 6 6 6 7 7 7 4 1 -1 -2 1 3 5 6 9 11 10 7 5
22 21 20 18 16 16 15 14 9 8 9 12 10 8 5 2 0 -2 -0 6 11 14 14 6 -1 -3 2 12 14 11 8 6 4 4 5 4 5 7 10 15 23 29 30 23 11 8 8 9 9 8 8 8 8 7 6 4 0 -2 -2 0 3 6 8 11 11 9 7 4 3
22 20 19 18 17 16 15 12 6 5 7 9 8 7 5 5 5 6 10 20 23 20 12 0 -3 1 9 15 13 11 8 4 3 3 4 2 4 8 15 25 36 36 28 10 5 5 7 8 7 8 8 8 8 6 4 0 -1 0 3 7 10 12 13 13 8 5 3 3 3
20 18 17 15 14 13 13 10 7 7 10 13 15 17 18 19 18 20 24 27 23 14 4 -4 -1 6 12 14 13 11 8 5 4 3 3 1 6 12 20 31 42 34 15 -4 0 4 6 6 6 7 7 6 6 5 3 2 3 5 9 13 14 13 11 7 4 2 2 3 4
20 17 14 11 11 11 11 11 11 13 15 18 21 24 26 26 25 25 23 19 11 3 -2 -1 6 11 13 14 12 10 8 7 6 7 8 10 14 17 21 30 34 21 3 -10 -2 2 5 6 6 6 5 3 3 4 6 7 7 9 11 13 11 8 5 3 2 2 3 4 5
20 15 12 10 10 11 11 12 12 13 16 19 23 25 25 24 21 18 14 9 2 -1 0 5 9 10 11 12 10 8 7 7 9 13 19 24 22 19 18 23 16 6 -4 -7 -1 4 6 7 6 4 3 1 2 4 6 7 7 9 11 10 7 4 3 2 2 3 4 5 7
18 14 12 10 9 9 9 10 10 12 14 18 20 21 19 16 12 9 5 2 1 2 3 4 3 4 6 8 6 5 4 4 8 15 23 29 25 24 23 20 8 1 -1 1 4 6 7 6 4 3 1 0 1 2 3 5 8 10 9 6 4 2 2 2 3 4 6 7 9
17 14 12 9 7 8 9 11 11 12 13 13 13 11 8 5 4 2 2 2 3 4 2 -1 -2 0 3 4 3 2 -0 -2 3 10 17 22 22 23 23 22 14 10 8 8 7 7 5 4 2 0 -1 -1 -0 2 4 7 9 9 6 3 2 2 2 3 5 6 8 10 11
16 14 11 8 10 12 13 14 13 12 10 8 6 3 1 1 2 3 4 5 5 3 1 -2 -1 2 4 5 6 6 6 5 6 6 7 12 18 15 12 16 15 13 11 8 6 4 2 0 -1 -2 -1 1 4 6 9 10 8 5 3 2 2 3 4 6 7 9 11 12 12
14 12 9 8 10 12 13 12 11 10 8 6 4 2 2 6 10 11 10 6 5 3 0 -0 4 8 12 15 18 19 19 19 14 7 4 9 19 12 2 1 4 5 4 3 2 1 -0 -0 1 2 5 9 10 10 9 6 4 3 2 2 3 5 7 9 10 11 12 12 11
11 8 5 3 4 6 8 9 9 8 7 6 4 4 6 11 14 14 9 -0 1 3 5 8 12 15 19 23 26 27 28 27 20 11 6 13 22 13 -1 -10 -6 -4 -2 -1 -1 -1 0 4 8 10 12 12 10 7 5 3 2 2 3 4 5 8 10 11 12 12 11 10 10
4 1 -1 -3 -1 3 7 10 10 8 6 5 5 5 6 10 10 8 4 -0 7 13 16 17 12 11 12 18 23 27 29 30 22 14 11 18 23 13 -1 -10 -7 -4 -2 -0 1 3 7 11 13 12 10 7 5 3 2 2 3 3 5 7 9 11 12 12 12 11 10 10 10
0 -1 -2 -2 1 7 13 16 13 10 7 6 4 2 3 5 7 9 12 16 22 26 25 16 4 3 8 15 21 24 27 27 20 15 14 21 22 14 6 5 7 8 7 7 9 11 13 13 10 7 4 3 2 2 3 3 4 6 7 10 11 12 12 12 11 11 10 10 11
4 3 3 4 6 11 16 19 16 12 8 5 3 2 5 10 16 23 29 34 36 33 25 10 4 7 14 18 20 20 19 18 15 14 17 25 25 23 21 22 19 16 13 13 13 12 9 6 4 3 2 2 2 3 4 5 7 8 10 12 12 12 12 11 11 11 11 11 12
12 12 11 11 11 13 16 20 18 13 9 7 9 11 15 21 27 31 34 36 34 29 21 11 10 13 17 18 16 14 11 10 13 19 26 31 29 27 24 20 17 14 12 11 8 6 3 2 2 2 2 2 3 4 6 8 9 11 12 12 12 11 11 10 11 11 12 12 11
20 20 20 18 16 15 17 19 17 15 14 15 17 19 21 24 25 24 23 21 20 19 17 14 14 15 16 17 17 16 17 18 24 28 30 28 23 19 15 12 9 7 5 4 3 2 2 2 2 2 3 3 5 7 8 10 11 11 11 11 11 11 11 11 11 11 11 10 9
22 22 21 16 13 13 15 19 19 19 20 20 19 19 19 19 17 15 12 9 8 9 11 13 13 14 15 18 23 26 28 29 29 27 23 18 14 10 7 5 3 1 1 2 2 2 3 3 3 4 5 6 8 10 11 11 11 11 10 10 11 11 11 11 10 9 8 7 7
Height
2916 2920 2923 2927 2930 2933 2937 2940 2943 2946 2950 2954 2958 2962 2966 2970 2973 2978 2982 2987 2991 2994 2997 3001 3004 3007 3010 3012 3015 3018 3022 3026 3029 3032 3035 3037 3040 3042 3045 3047 3049 3052 3054 3056 3058 3061 3063 3065 3068 3069 3070 3071 3072 3073 3074 3077 3079 3082 3083 3084 3085 3086 3087 3088 3089 3090 3090 3091 3091
2916 2919 2922 2926 2929 2932 2936 2939 2942 2945 2949 2953 2957 2962 2965 2969 2973 2977 2981 2985 2989 2993 2997 3000 3003 3006 3009 3012 3014 3017 3022 3026 3029 3032 3035 3037 3040 3042 3045 3047 3049 3051 3053 3056 3058 3060 3062 3065 3067 3068 3069 3071 3071 3072 3074 3077 3079 3081 3082 3083 3084 3086 3087 3088 3088 3089 3089 3090 3090
2916 2919 2922 2925 2929 2932 2935 2938 2941 2945 2949 2953 2957 2961 2965 2968 2972 2976 2981 2985 2988 2992 2996 3000 3003 3006 3008 3011 3014 3017 3022 3026 3029 3032 3035 3037 3040 3042 3044 3046 3048 3051 3053 3055 3058 3060 3062 3064 3066 3068 3069 3070 3070 3071 3073 3077 3079 3080 3082 3083 3084 3085 3086 3087 3087 3088 3088 3088 3089
2916 2919 2922 2925 2928 2931 2934 2937 2941 2945 2949 2953 2957 2961 2965 2968 2972 2976 2980 2984 2988 2992 2995 2999 3002 3006 3008 3011 3014 3017 3022 3026 3029 3032 3035 3037 3039 3042 3044 3046 3048 3050 3053 3055 3057 3059 3062 3063 3065 3067 3068 3069 3070 3071 3073 3077 3078 3080 3081 3082 3084 3085 3086 3086 3087 3087 3087 3087 3087
2916 2919 2922 2925 2927 2931 2934 2937 2942 2945 2950 2953 2957 2961 2964 2968 2972 2977 2980 2984 2987 2991 2994 2998 3002 3005 3008 3011 3014 3017 3022 3026 3029 3032 3035 3037 3039 3041 3043 3046 3048 3050 3052 3055 3057 3059 3061 3062 3064 3065 3067 3068 3069 3071 3074 3076 3078 3079 3081 3082 3083 3084 3085 3085 3085 3086 3086 3086 3087
2917 2919 2922 2925 2927 2931 2934 2938 2942 2946 2950 2954 2957 2961 2964 2968 2973 2977 2980 2983 2987 2990 2994 2997 3001 3005 3007 3010 3014 3018 3022 3026 3029 3032 3035 3037 3039 3041 3043 3045 3047 3050 3052 3054 3056 3058 3060 3061 3062 3064 3066 3068 3069 3071 3074 3076 3077 3079 3080 3081 3082 3083 3083 3084 3084 3084 3085 3085 3085
2917 2919 2922 2924 2927 2931 2934 2938 2942 2947 2950 2954 2957 2961 2965 2969 2973 2977 2980 2983 2987 2990 2994 2997 3000 3004 3007 3010 3014 3019 3023 3026 3029 3032 3035 3037 3038 3041 3043 3045 3047 3049 3052 3054 3056 3058 3059 3060 3062 3064 3066 3067 3069 3071 3073 3075 3077 3078 3079 3081 3081 3082 3082 3082 3083 3083 3083 3084 3085
2917 2919 2922 2924 2927 2931 2935 2939 2943 2947 2951 2954 2958 2962 2965 2969 2973 2977 2980 2983 2987 2990 2993 2996 2999 3003 3007 3010 3014 3019 3023 3025 3028 3031 3034 3036 3038 3040 3042 3044 3047 3049 3051 3053 3055 3057 3059 3060 3062 3063 3065 3067 3069 3071 3073 3075 3076 3077 3079 3079 3080 3080 3081 3081 3081 3082 3082 3083 3084
2918 2920 2922 2925 2928 2932 2935 2939 2943 2947 2951 2955 2959 2962 2966 2970 2973 2977 2980 2983 2986 2990 2994 2997 3000 3004 3007 3011 3015 3019 3022 3025 3027 3031 3033 3035 3037 3039 3042 3044 3046 3048 3051 3053 3055 3057 3058 3059 3061 3063 3065 3067 3069 3071 3073 3075 3076 3077 3077 3078 3078 3079 3079 3080 3080 3081 3082 3082 3083
2918 2921 2924 2927 2930 2933 2937 2940 2944 2948 2952 2956 2960 2964 2967 2972 2975 2977 2980 2983 2987 2991 2994 2997 3001 3004 3008 3012 3016 3020 3022 3024 3027 3030 3033 3035 3037 3039 3041 3044 3046 3048 3050 3052 3054 3056 3057 3059 3061 3062 3064 3067 3069 3071 3072 3074 3075 3076 3076 3077 3077 3077 3078 3078 3079 3080 3081 3082 3083
2919 2922 2925 2928 2931 2935 2938 2942 2946 2950 2953 2957 2961 2965 2969 2972 2975 2977 2980 2984 2987 2991 2995 2998 3002 3005 3008 3012 3017 3020 3022 3025 3028 3030 3032 3035 3037 3039 3041 3044 3046 3048 3050 3052 3054 3055 3057 3059 3061 3062 3064 3066 3068 3070 3072 3073 3073 3074 3074 3075 3076 3076 3077 3077 3078 3079 3080 3081 3082
2921 2924 2927 2930 2934 2938 2942 2944 2947 2951 2954 2958 2962 2966 2970 2972 2975 2977 2981 2985 2988 2992 2995 2999 3002 3006 3009 3013 3017 3019 3022 3025 3028 3030 3032 3035 3037 3039 3041 3043 3046 3048 3050 3052 3053 3055 3057 3058 3060 3061 3063 3065 3067 3069 3071 3071 3072 3072 3073 3074 3074 3075 3076 3077 3078 3079 3080 3081 3082
2923 2927 2930 2933 2937 2942 2945 2946 2949 2952 2956 2959 2962 2967 2970 2972 2975 2978 2982 2986 2990 2994 2997 3000 3003 3007 3010 3013 3017 3019 3022 3025 3027 3030 3032 3035 3037 3039 3041 3043 3045 3047 3050 3052 3053 3055 3057 3058 3059 3060 3062 3064 3067 3068 3069 3069 3070 3071 3072 3072 3073 3074 3075 3076 3077 3079 3080 3081 3081
2927 2930 2933 2936 2941 2945 2947 2948 2950 2953 2957 2961 2964 2967 2971 2973 2976 2980 2984 2988 2992 2995 2998 3001 3004 3007 3011 3014 3017 3019 3022 3025 3027 3030 3032 3034 3037 3039 3041 3043 3045 3047 3049 3051 3053 3055 3057 3058 3059 3060 3062 3064 3066 3067 3067 3068 3068 3069 3070 3072 3072 3074 3075 3076 3077 3078 3079 3080 3081
2930 2932 2936 2939 2943 2946 2948 2949 2952 2955 2958 2963 2966 2969 2971 2974 2977 2982 2986 2989 2993 2996 2998 3001 3004 3007 3011 3014 3017 3020 3022 3025 3027 3030 3032 3034 3037 3039 3041 3043 3045 3047 3048 3051 3053 3055 3056 3057 3058 3060 3062 3063 3065 3066 3067 3067 3067 3068 3069 3071 3072 3073 3074 3076 3077 3078 3079 3080 3080
2932 2935 2938 2941 2944 2946 2949 2951 2954 2957 2960 2964 2967 2970 2972 2976 2979 2983 2987 2990 2993 2996 2998 3001 3004 3007 3011 3014 3018 3021 3023 3026 3028 3030 3032 3034 3037 3039 3041 3043 3045 3046 3048 3050 3053 3054 3055 3056 3057 3059 3061 3062 3064 3065 3066 3066 3067 3068 3069 3070 3071 3072 3074 3075 3077 3078 3079 3079 3080
2934 2937 2940 2942 2945 2947 2950 2953 2956 2958 2962 2965 2968 2972 2974 2977 2981 2984 2987 2990 2993 2995 2998 3002 3005 3008 3011 3015 3018 3021 3024 3026 3028 3030 3032 3034 3037 3038 3041 3042 3044 3046 3048 3051 3052 3054 3055 3055 3057 3058 3060 3062 3064 3065 3066 3066 3067 3067 3068 3070 3071 3072 3073 3075 3077 3077 3078 3079 3080
2937 2940 2942 2944 2947 2949 2952 2955 2958 2961 2964 2967 2971 2974 2977 2979 2982 2985 2988 2990 2993 2996 2999 3003 3006 3009 3013 3016 3019 3022 3024 3026 3028 3030 3032 3034 3037 3039 3041 3043 3045 3047 3048 3051 3053 3054 3054 3055 3057 3058 3060 3062 3063 3065 3066 3066 3067 3068 3068 3069 3071 3072 3073 3075 3076 3077 3078 3079 3080
2940 2942 2944 2947 2949 2952 2955 2958 2961 2964 2967 2970 2973 2976 2978 2981 2983 2986 2989 2992 2995 2998 3001 3004 3007 3011 3014 3017 3020 3022 3024 3027 3028 3030 3032 3035 3037 3039 3041 3043 3045 3047 3049 3051 3052 3053 3054 3055 3057 3058 3060 3062 3063 3065 3066 3066 3067 3068 3068 3069 3070 3072 3073 3075 3076 3077 3078 3079 3080
2942 2944 2947 2950 2952 2955 2957 2960 2963 2966 2969 2972 2975 2977 2979 2982 2985 2987 2990 2993 2996 2999 3002 3005 3008 3012 3015 3018 3021 3023 3025 3027 3029 3031 3033 3035 3037 3040 3042 3044 3046 3047 3049 3050 3052 3052 3053 3055 3057 3059 3061 3062 3063 3065 3066 3067 3067 3068 3069 3069 3071 3072 3073 3075 3076 3077 3078 3079 3080
2945 2947 2950 2952 2955 2957 2960 2962 2965 2968 2970 2973 2975 2978 2980 2983 2986 2989 2992 2994 2997 3001 3003 3007 3010 3013 3016 3018 3021 3022 3025 3027 3029 3032 3034 3036 3038 3040 3042 3044 3046 3047 3049 3050 3051 3052 3053 3055 3057 3059 3061 3062 3064 3065 3066 3067 3067 3068 3069 3070 3071 3072 3073 3074 3076 3076 3077 3078 3079
2948 2951 2953 2956 2958 2960 2962 2965 2967 2969 2972 2974 2976 2979 2981 2984 2987 2990 2993 2996 2999 3002 3005 3008 3011 3014 3017 3019 3021 3022 3025 3028 3030 3033 3035 3037 3039 3041 3042 3044 3046 3047 3049 3050 3050 3051 3053 3055 3057 3059 3061 3063 3064 3065 3066 3067 3067 3068 3069 3070 3071 3072 3073 3074 3075 3075 3077 3078 3079
2951 2953 2956 2958 2961 2963 2965 2967 2969 2972 2973 2976 2978 2980 2982 2985 2988 2991 2995 2997 3000 3003 3006 3009 3012 3015 3017 3020 3021 3023 3026 3029 3031 3033 3036 3037 3039 3040 3042 3043 3045 3047 3048 3048 3049 3051 3052 3055 3057 3059 3061 3062 3063 3064 3065 3066 3067 3069 3070 3070 3071 3071 3072 3073 3074 3075 3076 3078 3078
2954 2956 2958 2961 2963 2965 2967 2969 2971 2973 2975 2977 2979 2981 2984 2987 2990 2993 2996 2999 3002 3005 3007 3011 3013 3016 3018 3020 3022 3024 3027 3029 3032 3034 3036 3037 3039 3040 3042 3043 3045 3046 3047 3048 3049 3050 3053 3055 3057 3059 3060 3061 3062 3063 3065 3066 3067 3069 3069 3070 3070 3071 3072 3072 3073 3074 3076 3077 3078
2957 2959 2961 2963 2966 2967 2969 2971 2973 2974 2977 2979 2981 2983 2986 2989 2992 2995 2998 3002 3004 3007 3009 3012 3014 3017 3019 3021 3023 3025 3028 3030 3033 3035 3036 3037 3039 3040 3042 3043 3045 3045 3046 3047 3048 3050 3053 3055 3057 3058 3060 3061 3062 3063 3065 3067 3067 3068 3069 3069 3070 3070 3071 3071 3072 3074 3076 3077 3077
2959 2962 2964 2966 2967 2969 2971 2973 2974 2976 2978 2981 2983 2986 2989 2992 2995 2998 3001 3004 3006 3009 3011 3013 3016 3018 3020 3022 3024 3026 3029 3032 3034 3035 3036 3037 3039 3040 3042 3043 3044 3044 3045 3046 3047 3050 3052 3055 3057 3058 3060 3061 3062 3064 3066 3067 3067 3068 3068 3069 3069 3070 3070 3071 3072 3074 3076 3076 3076
2961 2963 2966 2967 2969 2971 2973 2974 2976 2978 2980 2982 2985 2988 2992 2995 2998 3001 3003 3005 3007 3009 3012 3015 3017 3019 3021 3022 3025 3027 3030 3032 3034 3035 3037 3038 3039 3041 3042 3043 3043 3043 3043 3045 3047 3050 3052 3054 3056 3058 3060 3061 3063 3065 3066 3066 3067 3067 3068 3068 3069 3069 3070 3071 3073 3074 3075 3075 3075
2963 2965 2967 2969 2971 2973 2974 2976 2978 2980 2982 2985 2987 2990 2993 2996 2999 3001 3003 3006 3008 3011 3013 3016 3018 3020 3021 3023 3026 3029 3031 3033 3034 3035 3037 3038 3040 3041 3042 3042 3042 3042 3043 3044 3047 3049 3051 3053 3055 3057 3059 3061 3063 3064 3065 3065 3066 3067 3067 3068 3069 3070 3071 3072 3073 3074 3074 3074 3074
2966 2967 2969 2971 2972 2974 2977 2978 2981 2983 2985 2987 2990 2992 2995 2998 3000 3002 3005 3007 3010 3012 3015 3017 3019 3020 3022 3024 3027 3029 3031 3032 3033 3035 3037 3038 3039 3040 3040 3041 3042 3042 3042 3043 3046 3048 3051 3053 3055 3057 3059 3061 3062 3063 3064 3065 3065 3066 3067 3068 3069 3071 3072 3072 3073 3073 3073 3073 3073
2967 2969 2971 2973 2975 2977 2979 2981 2983 2986 2988 2990 2993 2995 2998 3000 3003 3005 3007 3009 3012 3014 3016 3018 3019 3021 3023 3026 3028 3029 3031 3032 3034 3036 3037 3037 3037 3038 3039 3040 3042 3042 3043 3044 3046 3048 3051 3052 3055 3057 3059 3061 3062 3062 3063 3064 3064 3065 3067 3068 3070 3071 3072 3072 3072 3072 3073 3073 3073
2970 2972 2973 2975 2977 2980 2982 2984 2986 2988 2991 2993 2995 2998 3000 3002 3005 3007 3009 3011 3013 3015 3017 3019 3021 3022 3025 3027 3027 3029 3031 3033 3034 3035 3036 3036 3037 3037 3038 3039 3041 3042 3043 3044 3047 3049 3051 3053 3055 3057 3059 3060 3061 3061 3062 3063 3064 3065 3067 3069 3070 3071 3072 3072 3072 3072 3072 3072 3072
2972 2974 2976 2978 2980 2982 2985 2987 2989 2991 2993 2996 2998 3000 3002 3004 3006 3008 3010 3012 3014 3016 3018 3020 3022 3024 3025 3026 3027 3029 3031 3032 3034 3035 3036 3037 3037 3038 3038 3039 3041 3042 3044 3046 3048 3050 3052 3054 3056 3057 3058 3059 3060 3060 3061 3062 3064 3066 3068 3069 3070 3071 3071 3071 3072 3072 3072 3072 3072
2975 2977 2978 2981 2983 2985 2987 2989 2992 2993 2996 2997 3000 3002 3003 3005 3007 3009 3011 3013 3015 3017 3019 3021 3023 3024 3025 3026 3027 3029 3031 3032 3032 3034 3035 3037 3037 3037 3038 3040 3042 3044 3046 3048 3050 3052 3054 3055 3056 3057 3057 3058 3059 3060 3062 3063 3065 3067 3068 3069 3070 3070 3071 3071 3071 3071 3071 3071 3071
2977 2979 2981 2983 2986 2988 2990 2992 2993 2995 2997 2999 3001 3003 3004 3006 3007 3009 3012 3014 3016 3018 3020 3022 3023 3024 3025 3027 3027 3028 3029 3030 3031 3032 3034 3036 3037 3037 3038 3040 3042 3045 3047 3049 3051 3052 3053 3055 3056 3056 3057 3058 3059 3061 3062 3064 3066 3067 3068 3069 3070 3070 3070 3071 3071 3071 3071 3071 3071
2980 2982 2984 2986 2988 2990 2992 2994 2996 2997 2999 3001 3002 3004 3005 3007 3009 3011 3013 3015 3017 3019 3020 3022 3023 3024 3025 3026 3027 3027 3028 3029 3031 3032 3033 3035 3036 3037 3038 3039 3041 3044 3046 3048 3050 3052 3053 3054 3055 3056 3057 3059 3060 3062 3063 3065 3066 3067 3068 3069 3069 3070 3070 3070 3071 3071 3071 3071 3071
2983 2985 2987 2988 2990 2992 2994 2996 2997 2999 3001 3002 3003 3005 3007 3009 3011 3012 3014 3016 3017 3019 3020 3022 3022 3023 3024 3025 3026 3027 3028 3029 3030 3031 3033 3034 3036 3038 3038 3040 3041 3043 3046 3048 3050 3052 3053 3054 3055 3056 3058 3060 3061 3063 3064 3065 3066 3067 3068 3068 3069 3069 3070 3070 3070 3070 3070 3070 3070
2986 2987 2989 2991 2992 2994 2996 2997 2999 3001 3002 3004 3005 3007 3009 3011 3012 3014 3015 3016 3017 3019 3020 3021 3021 3022 3024 3025 3027 3028 3029 3030 3031 3032 3034 3035 3037 3038 3040 3042 3043 3045 3047 3049 3051 3052 3052 3053 3055 3057 3058 3060 3062 3063 3064 3066 3066 3067 3068 3068 3069 3069 3070 3070 3070 3070 3070 3070 3070
2988 2990 2991 2992 2994 2996 2997 2999 3001 3003 3004 3006 3007 3009 3010 3011 3012 3014 3016 3017 3018 3019 3019 3020 3022 3023 3025 3027 3028 3029 3031 3032 3033 3034 3035 3037 3039 3040 3042 3043 3045 3047 3048 3049 3050 3051 3052 3053 3056 3057 3059 3061 3062 3063 3065 3066 3067 3067 3068 3068 3069 3069 3069 3070 3070 3070 3070 3070 3070
2991 2992 2993 2995 2996 2998 2999 3001 3003 3005 3007 3008 3009 3011 3011 3012 3013 3014 3016 3017 3018 3019 3020 3022 3023 3025 3027 3028 3030 3031 3032 3034 3035 3036 3037 3039 3040 3042 3043 3045 3046 3047 3048 3049 3050 3051 3053 3055 3057 3059 3060 3062 3062 3064 3065 3066 3067 3067 3067 3068 3068 3069 3069 3069 3069 3069 3069 3069 3069
2993 2994 2996 2997 2999 3000 3002 3003 3005 3007 3009 3010 3011 3011 3012 3012 3013 3014 3016 3017 3018 3020 3021 3023 3024 3026 3027 3029 3031 3032 3033 3035 3037 3038 3039 3040 3041 3042 3044 3045 3047 3048 3049 3050 3051 3053 3055 3057 3058 3059 3061 3062 3063 3064 3065 3066 3066 3067 3067 3068 3068 3068 3069 3069 3069 3069 3069 3069 3069
2996 2997 2998 3000 3002 3003 3004 3006 3007 3009 3010 3011 3011 3011 3012 3013 3014 3015 3016 3017 3019 3021 3023 3025 3026 3027 3029 3031 3032 3034 3035 3036 3038 3039 3040 3041 3042 3043 3045 3046 3048 3049 3050 3052 3053 3055 3056 3057 3059 3060 3061 3062 3063 3064 3065 3066 3066 3067 3067 3067 3068 3068 3068 3069 3069 3069 3069 3069 3069